This demonstration page uses our WeatherBlox Daily Observations layout. Learn more.

Left ArrowRight Arrow

31.31129, -92.44514

Hourly Observations for August 31, 2016

Temp ( °F °C ) Dew Point ( °F °C ) Humidity (%) Winds ( mph kmh ) Pressure ( in mb ) Visibility ( mi km ) Precip ( " mm )
12:53 am 00:53 Clear with Mist and Fog 77 25 76 24.4 96 96 Calm 29.93 1014 6 10 0.00 0.00
1:53 am 01:53 Clear with Mist and Fog 76 24.4 76 24.4 100 100 Calm 29.93 1014 5 8 0.00 0.00
2:53 am 02:53 Mostly Clear with Mist and Fog 75 23.9 75 23.9 100 100 W 5 7 29.93 1013 5 8 0.00 0.00
3:53 am 03:53 Clear with Mist and Fog 75 23.9 74 23.3 96 96 Calm 29.92 1013 6 10 0.00 0.00
4:53 am 04:53 Clear with Mist and Fog 74 23.3 74 23.3 100 100 W 3 6 29.92 1013 5 8 0.00 0.00
5:53 am 05:53 Clear with Mist and Fog 73 22.8 73 22.8 100 100 Calm 29.92 1013 4 6 0.00 0.00
6:53 am 06:53 Sunny with Mist and Fog 73 22.8 73 22.8 100 100 Calm 29.92 1013 4 6 0.00 0.00
7:53 am 07:53 Sunny 76 24.4 74 23.3 94 94 Calm 29.93 1013 7 11 0.00 0.00
8:53 am 08:53 Sunny 81 27.2 75 23.9 82 82 Calm 29.93 1014 8 13 0.00 0.00
9:53 am 09:53 Sunny 85 29.4 75 23.9 72 72 NE 6 9 29.93 1014 10 16 0.00 0.00
10:53 am 10:53 Sunny 89 31.7 74 23.3 61 61 NNE 6 9 29.93 1014 10 16 0.00 0.00
11:53 am 11:53 Sunny 91 32.8 72 22.2 54 54 ENE 7 11 29.93 1014 10 16 0.00 0.00
12:53 pm 12:53 Mostly Sunny 92 33.3 71 21.7 51 51 ENE 7 11 29.91 1013 10 16 0.00 0.00
1:53 pm 13:53 Sunny 94 34.4 71 21.7 48 48 N 8 13 29.90 1012 10 16 0.00 0.00
2:53 pm 14:53 Sunny 95 35 69 20.6 43 43 NNE 7 11 29.88 1012 10 16 0.00 0.00
3:53 pm 15:53 Sunny 95 35 69 20.6 43 43 VRB 7 11 29.86 1011 10 16 0.00 0.00
4:53 pm 16:53 Sunny 94 34.4 70 21.1 46 46 NE 6 9 29.84 1011 10 16 0.00 0.00
5:53 pm 17:53 Sunny 92 33.3 70 21.1 49 49 NNE 6 9 29.83 1010 10 16 0.00 0.00
6:53 pm 18:53 Sunny 89 31.7 74 23.3 61 61 N 5 7 29.83 1010 10 16 0.00 0.00
7:53 pm 19:53 Clear 84 28.9 74 23.3 72 72 N 6 9 29.84 1011 10 16 0.00 0.00
8:53 pm 20:53 Clear 82 27.8 74 23.3 77 77 N 5 7 29.87 1012 10 16 0.00 0.00
9:53 pm 21:53 Clear 82 27.8 74 23.3 77 77 N 5 7 29.89 1012 10 16 0.00 0.00
10:53 pm 22:53 Clear 79 26.1 74 23.3 85 85 N 5 7 29.90 1013 10 16 0.00 0.00
11:53 pm 23:53 Clear 79 26.1 74 23.3 85 85 N 6 9 29.89 1012 9 14 0.00 0.00

Powered by AerisWeather